• In Hungary
  • List of Countries
  • For 7 days
  • Water Temperature
  • Satellite Maps
  • Weather Map
  • News
  • Weather Widgets
  • user-avatar
    Login

    Hourly Weather Biernatowek

    Today, 18 June, Monday

    Time Temperature Precipitation Wind Pressure Humidity
    00:00 +19°C° 0 mm 1 mps 742 mmHg 76%
    01:00 +18°C° 0 mm 2 mps 742 mmHg 81%
    02:00 +17°C° 0.1 mm 2 mps 742 mmHg 85%
    03:00 +17°C° 0.1 mm 2 mps 742 mmHg 90%
    04:00 +16°C° 0.1 mm 2 mps 742 mmHg 94%
    05:00 +17°C° 0.1 mm 3 mps 743 mmHg 91%
    06:00 +18°C° 0.1 mm 3 mps 743 mmHg 88%
    07:00 +19°C° 0 mm 3 mps 743 mmHg 83%
    08:00 +21°C° 0.3 mm 4 mps 743 mmHg 79%
    09:00 +22°C° 0.3 mm 4 mps 744 mmHg 75%
    10:00 +23°C° 0.3 mm 5 mps 744 mmHg 71%
    11:00 +23°C° 0.2 mm 4 mps 744 mmHg 68%
    12:00 +25°C° 0.2 mm 4 mps 744 mmHg 66%
    13:00 +25°C° 0.2 mm 4 mps 744 mmHg 63%
    14:00 +25°C° 0.1 mm 4 mps 744 mmHg 63%
    15:00 +25°C° 0.1 mm 4 mps 744 mmHg 63%
    16:00 +26°C° 0.1 mm 4 mps 744 mmHg 63%
    17:00 +23°C° 0 mm 4 mps 744 mmHg 67%
    18:00 +22°C° 0 mm 3 mps 744 mmHg 72%
    19:00 +21°C° 0 mm 3 mps 744 mmHg 76%
    20:00 +20°C° 0 mm 3 mps 744 mmHg 78%
    21:00 +19°C° 0 mm 3 mps 745 mmHg 80%
    22:00 +18°C° 0 mm 2 mps 745 mmHg 82%
    23:00 +17°C° 0 mm 2 mps 745 mmHg 83%

    Tomorrow, 19 June, Tuesday

    Time Temperature Precipitation Wind Pressure Humidity
    00:00 +16°C° 0 mm 2 mps 745 mmHg 83%
    01:00 +16°C° 0 mm 2 mps 745 mmHg 84%
    02:00 +15°C° 0 mm 2 mps 746 mmHg 84%
    03:00 +15°C° 0 mm 2 mps 746 mmHg 85%
    04:00 +15°C° 0 mm 1 mps 746 mmHg 85%
    05:00 +16°C° 0 mm 2 mps 746 mmHg 80%
    06:00 +18°C° 0 mm 2 mps 746 mmHg 75%
    07:00 +20°C° 0 mm 2 mps 746 mmHg 70%
    08:00 +21°C° 0 mm 2 mps 746 mmHg 66%
    09:00 +23°C° 0 mm 2 mps 747 mmHg 61%
    10:00 +25°C° 0 mm 2 mps 747 mmHg 57%
    11:00 +25°C° 0 mm 2 mps 746 mmHg 56%
    12:00 +26°C° 0 mm 2 mps 746 mmHg 54%
    13:00 +27°C° 0 mm 2 mps 746 mmHg 53%
    14:00 +26°C° 0 mm 2 mps 746 mmHg 57%
    15:00 +26°C° 0 mm 3 mps 746 mmHg 60%
    16:00 +26°C° 0 mm 3 mps 746 mmHg 64%
    17:00 +25°C° 0 mm 3 mps 746 mmHg 69%
    18:00 +23°C° 0 mm 2 mps 746 mmHg 74%
    19:00 +21°C° 0 mm 2 mps 746 mmHg 79%
    20:00 +20°C° 0 mm 2 mps 746 mmHg 81%
    21:00 +20°C° 0 mm 1 mps 747 mmHg 84%
    22:00 +19°C° 0 mm 1 mps 747 mmHg 86%
    23:00 +19°C° 0 mm 1 mps 747 mmHg 87%

    Day after tomorrow, 20 June, Wednesday

    Time Temperature Precipitation Wind Pressure Humidity
    00:00 +18°C° 0 mm 1 mps 747 mmHg 88%
    01:00 +18°C° 0 mm 1 mps 747 mmHg 88%
    02:00 +18°C° 0 mm 1 mps 747 mmHg 89%
    03:00 +16°C° 0 mm 1 mps 747 mmHg 90%
    04:00 +16°C° 0 mm 1 mps 747 mmHg 91%
    05:00 +19°C° 0 mm 1 mps 747 mmHg 86%
    06:00 +20°C° 0 mm 1 mps 748 mmHg 81%
    07:00 +22°C° 0 mm 1 mps 748 mmHg 76%
    08:00 +23°C° 0 mm 1 mps 748 mmHg 71%
    09:00 +24°C° 0 mm 1 mps 748 mmHg 66%
    10:00 +26°C° 0 mm 2 mps 748 mmHg 61%
    11:00 +26°C° 0 mm 1 mps 747 mmHg 59%
    12:00 +27°C° 0 mm 1 mps 747 mmHg 57%
    13:00 +27°C° 0 mm 1 mps 747 mmHg 55%
    14:00 +28°C° 0 mm 1 mps 746 mmHg 55%
    15:00 +28°C° 0 mm 1 mps 746 mmHg 55%
    16:00 +28°C° 0 mm 1 mps 746 mmHg 55%
    17:00 +27°C° 0 mm 1 mps 746 mmHg 60%
    18:00 +26°C° 0 mm 1 mps 745 mmHg 65%
    19:00 +25°C° 0 mm 1 mps 745 mmHg 70%
    20:00 +23°C° 0 mm 1 mps 745 mmHg 73%
    21:00 +22°C° 0 mm 1 mps 745 mmHg 76%
    22:00 +21°C° 0 mm 1 mps 746 mmHg 79%
    23:00 +20°C° 0 mm 1 mps 745 mmHg 80%

    21 June, Thursday

    Time Temperature Precipitation Wind Pressure Humidity
    00:00 +20°C° 0 mm 1 mps 745 mmHg 82%
    01:00 +20°C° 0 mm 1 mps 745 mmHg 83%
    02:00 +19°C° 0 mm 1 mps 744 mmHg 84%
    03:00 +19°C° 0 mm 1 mps 744 mmHg 85%
    04:00 +19°C° 0 mm 1 mps 744 mmHg 86%
    05:00 +21°C° 0 mm 1 mps 743 mmHg 81%
    06:00 +22°C° 0 mm 1 mps 743 mmHg 76%
    07:00 +24°C° 0 mm 1 mps 743 mmHg 71%
    08:00 +26°C° 0 mm 2 mps 742 mmHg 66%
    09:00 +27°C° 0 mm 2 mps 742 mmHg 62%
    10:00 +29°C° 0 mm 3 mps 741 mmHg 57%
    11:00 +29°C° 0 mm 3 mps 741 mmHg 56%
    12:00 +30°C° 0 mm 3 mps 740 mmHg 54%
    13:00 +30°C° 0 mm 4 mps 739 mmHg 53%
    14:00 +30°C° 0.2 mm 4 mps 739 mmHg 56%
    15:00 +30°C° 0.2 mm 4 mps 738 mmHg 58%
    16:00 +30°C° 0.2 mm 4 mps 737 mmHg 61%
    17:00 +28°C° 1.1 mm 4 mps 737 mmHg 68%
    18:00 +27°C° 1.1 mm 3 mps 737 mmHg 74%
    19:00 +25°C° 1.1 mm 3 mps 736 mmHg 81%
    20:00 +23°C° 0.6 mm 4 mps 736 mmHg 83%
    21:00 +22°C° 0.6 mm 4 mps 737 mmHg 85%
    22:00 +21°C° 0.6 mm 5 mps 737 mmHg 88%
    23:00 +19°C° 0.3 mm 5 mps 738 mmHg 88%

    22 June, Friday

    Time Temperature Precipitation Wind Pressure Humidity
    00:00 +16°C° 0.3 mm 6 mps 739 mmHg 88%
    01:00 +14°C° 0.3 mm 7 mps 739 mmHg 87%
    02:00 +13°C° 0 mm 6 mps 740 mmHg 86%
    03:00 +12°C° 0 mm 5 mps 740 mmHg 85%
    04:00 +10°C° 0 mm 4 mps 741 mmHg 83%
    05:00 +11°C° 0 mm 4 mps 741 mmHg 79%
    06:00 +10°C° 0 mm 5 mps 741 mmHg 75%
    07:00 +12°C° 0 mm 5 mps 742 mmHg 71%
    08:00 +12°C° 0 mm 5 mps 742 mmHg 68%
    09:00 +13°C° 0 mm 4 mps 742 mmHg 65%
    10:00 +14°C° 0 mm 4 mps 742 mmHg 62%
    11:00 +14°C° 0.1 mm 4 mps 742 mmHg 59%
    12:00 +15°C° 0.1 mm 4 mps 742 mmHg 57%
    13:00 +15°C° 0.1 mm 4 mps 742 mmHg 55%
    14:00 +17°C° 0.1 mm 4 mps 742 mmHg 55%
    15:00 +16°C° 0.1 mm 5 mps 742 mmHg 55%
    16:00 +16°C° 0.1 mm 5 mps 742 mmHg 55%
    17:00 +15°C° 0.1 mm 4 mps 742 mmHg 60%
    18:00 +14°C° 0.1 mm 4 mps 742 mmHg 64%
    19:00 +14°C° 0.1 mm 3 mps 742 mmHg 69%
    20:00 +13°C° 0 mm 3 mps 742 mmHg 71%
    21:00 +12°C° 0 mm 3 mps 742 mmHg 73%
    22:00 +11°C° 0 mm 4 mps 742 mmHg 76%
    23:00 +10°C° 0 mm 4 mps 742 mmHg 78%

    23 June, Saturday

    Time Temperature Precipitation Wind Pressure Humidity
    00:00 +10°C° 0 mm 4 mps 742 mmHg 80%
    01:00 +10°C° 0 mm 4 mps 742 mmHg 82%
    02:00 +10°C° 0 mm 4 mps 742 mmHg 83%
    03:00 +10°C° 0 mm 4 mps 742 mmHg 84%
    04:00 +10°C° 0 mm 4 mps 742 mmHg 85%
    05:00 +11°C° 0.1 mm 4 mps 742 mmHg 82%
    06:00 +12°C° 0.1 mm 4 mps 742 mmHg 79%
    07:00 +12°C° 0.1 mm 5 mps 742 mmHg 77%
    08:00 +13°C° 0.2 mm 5 mps 743 mmHg 72%
    09:00 +14°C° 0.2 mm 5 mps 743 mmHg 68%
    10:00 +14°C° 0.2 mm 6 mps 743 mmHg 63%
    11:00 +14°C° 0.1 mm 5 mps 743 mmHg 62%
    12:00 +14°C° 0.1 mm 5 mps 743 mmHg 61%
    13:00 +15°C° 0.1 mm 5 mps 743 mmHg 60%
    14:00 +14°C° 0.1 mm 5 mps 743 mmHg 62%
    15:00 +14°C° 0.1 mm 5 mps 743 mmHg 64%
    16:00 +14°C° 0.1 mm 4 mps 743 mmHg 65%
    17:00 +14°C° 0.1 mm 4 mps 743 mmHg 69%
    18:00 +13°C° 0.1 mm 3 mps 743 mmHg 72%
    19:00 +14°C° 0.1 mm 2 mps 743 mmHg 76%
    20:00 +12°C° 0 mm 2 mps 744 mmHg 79%
    21:00 +10°C° 0 mm 2 mps 744 mmHg 83%
    22:00 +9°C° 0 mm 2 mps 744 mmHg 86%
    23:00 +9°C° 0 mm 2 mps 745 mmHg 88%
    Show more